Wind_Speed
43 42 41 44 49 53 51 48 45 44 43 41 40 39 38 38 38 42 46 49 53 45 37 40 36 31 29 28 31 35 40 44 44 42 38 38 39 38 39 40 38 35 34 34 32 31 33 33 34 36 39 43 45 47 48 49 51 51 52 53 54 54 54 55 56 57 57 58 58 59 59 59 60 60 60 60 59 58 58 58 57 57 57 58 58 58
44 40 42 49 52 52 52 51 49 46 44 43 41 40 39 40 40 41 45 48 52 45 36 40 38 32 32 31 31 34 37 43 47 46 42 39 39 39 40 41 40 38 36 36 36 35 34 35 35 34 34 37 40 42 45 48 50 50 51 52 53 54 54 55 56 56 57 57 58 58 59 59 59 59 60 60 59 60 59 58 58 58 58 58 58 59
45 42 44 51 53 53 52 53 52 49 47 45 44 43 41 43 43 40 44 47 50 45 37 40 37 32 34 33 34 37 37 41 47 49 46 41 39 40 41 42 42 40 38 37 38 38 37 37 37 36 34 34 36 38 41 44 46 48 49 51 52 53 53 54 54 54 55 55 56 57 57 57 58 58 58 58 58 58 58 57 57 58 58 58 59 60
46 45 50 54 55 54 54 55 55 52 49 47 48 47 43 46 46 41 43 46 48 45 39 39 34 29 33 36 38 40 38 40 46 49 49 46 43 42 41 43 44 43 41 39 39 39 38 39 38 38 37 35 35 36 38 41 43 46 47 48 50 50 51 51 52 52 52 53 54 54 54 54 55 56 56 56 56 56 57 57 57 58 58 59 60 61
49 49 53 55 56 56 56 57 58 56 53 50 51 51 47 48 50 45 45 47 45 45 44 43 33 25 33 39 39 43 40 39 44 46 47 49 48 45 43 44 46 46 44 43 42 41 40 40 39 38 39 38 37 37 37 39 41 43 44 45 46 47 48 48 49 49 50 51 51 52 52 53 53 54 54 55 56 57 58 59 59 60 61 62 62 63
51 54 57 57 57 58 58 57 59 63 59 53 54 57 54 53 54 51 51 49 44 42 44 47 36 23 31 39 39 45 44 39 42 44 46 52 51 48 47 48 50 50 47 46 46 45 44 43 41 40 41 41 41 41 40 40 41 42 43 43 44 46 47 47 48 49 50 50 51 51 52 52 53 54 56 57 58 59 60 61 61 62 63 63 64 64
53 58 61 59 58 58 58 56 61 68 65 55 57 63 62 60 59 57 55 53 48 44 41 45 41 27 27 37 44 48 47 44 44 46 48 52 53 51 50 51 53 54 51 49 48 47 46 46 45 44 44 44 44 44 44 43 43 44 45 46 46 47 48 48 48 49 50 51 51 52 53 54 56 57 58 59 59 60 60 60 60 61 62 63 64 65
59 62 62 63 62 60 59 59 63 70 67 59 61 66 65 63 63 61 60 58 54 51 46 45 50 40 29 34 46 48 47 47 47 47 48 51 53 53 53 54 55 57 56 53 51 51 50 50 49 48 47 47 47 47 47 46 46 47 48 49 49 50 51 51 51 51 52 53 53 54 55 56 58 59 59 59 59 60 60 60 60 61 62 63 64 66
64 65 64 66 66 64 64 65 66 69 69 65 67 69 67 67 66 65 64 62 59 56 51 48 56 55 37 34 43 44 43 48 49 49 48 50 54 54 54 55 56 58 59 58 56 55 54 53 53 51 50 50 51 51 51 51 51 50 51 52 53 53 54 54 55 55 56 56 56 56 56 57 58 59 60 60 61 62 63 63 64 64 64 64 65 66
67 67 65 67 68 69 71 72 72 73 74 73 74 74 73 72 71 71 69 68 67 60 54 52 58 63 49 36 39 42 42 48 50 50 50 50 53 54 53 53 56 58 59 59 59 59 58 55 55 54 54 54 54 55 56 56 56 56 55 56 56 57 56 57 58 58 58 58 58 58 58 59 60 61 62 63 64 64 65 66 66 67 66 66 66 66
71 69 66 67 69 71 72 74 76 78 79 79 80 78 77 75 73 75 73 71 72 63 55 55 58 63 55 41 41 44 45 48 48 49 53 53 53 54 53 53 53 55 57 57 58 60 60 59 58 57 56 57 56 57 58 58 59 59 60 60 60 60 60 60 60 60 61 61 61 62 62 62 62 62 63 65 65 65 66 67 68 69 69 69 69 69
73 71 70 70 72 73 74 76 77 79 81 82 82 82 81 80 78 78 75 73 74 63 55 58 62 63 55 45 47 52 51 51 49 49 52 54 55 55 57 57 55 54 55 55 56 59 62 62 62 61 60 59 58 58 58 58 58 59 60 61 62 62 62 62 61 61 61 62 62 63 64 64 63 63 64 65 66 67 69 70 72 73 73 73 72 72
73 73 74 74 74 77 79 79 78 79 81 83 85 87 88 87 85 84 82 81 78 68 62 65 67 62 52 47 52 56 55 54 52 52 52 53 54 55 59 62 60 57 57 57 57 59 62 65 65 64 63 62 61 61 60 60 60 59 59 59 60 61 61 61 61 61 61 62 63 64 64 64 64 65 66 66 67 69 70 71 73 75 76 75 75 75
77 75 76 78 79 80 81 82 82 82 84 86 88 91 94 94 92 91 90 90 85 76 73 74 72 63 54 55 58 59 60 57 55 56 56 54 56 57 60 62 63 62 61 61 61 60 62 65 67 66 65 64 63 63 63 64 64 64 63 62 62 61 62 62 62 62 62 63 64 65 65 66 67 68 69 70 71 72 72 74 76 77 79 79 80 81
84 80 77 82 85 84 82 84 86 88 88 87 88 92 95 95 96 99 100 97 90 84 80 80 77 67 60 62 63 63 64 61 58 58 57 57 59 62 64 64 64 64 64 65 64 65 65 66 67 68 68 68 67 66 67 68 68 68 67 67 66 66 66 65 64 64 65 67 68 69 70 71 71 72 73 74 74 75 76 78 79 80 82 83 85 86
92 87 81 85 90 88 86 88 90 93 93 89 89 92 93 93 98 104 104 101 98 95 91 85 81 73 68 69 70 70 69 66 63 61 59 59 60 63 66 67 66 67 68 68 67 67 68 68 69 69 69 69 69 70 71 72 72 70 70 69 69 69 69 68 67 68 70 73 74 75 75 75 74 74 74 75 76 77 79 81 81 83 84 86 87 88
100 96 90 90 92 92 91 92 93 96 96 94 92 93 93 96 102 106 107 106 106 107 102 95 89 83 79 77 76 79 78 74 73 69 65 62 62 64 66 66 67 69 71 73 72 73 72 72 73 73 73 72 72 73 74 76 76 74 72 71 70 71 70 70 71 73 76 78 79 79 78 78 78 78 79 79 80 82 82 83 84 85 85 87 89 90
109 107 103 99 97 97 97 97 97 98 99 100 99 98 99 102 105 108 111 112 113 114 110 103 98 94 91 85 82 85 84 83 83 80 73 67 65 68 70 69 69 71 74 76 78 80 81 81 81 80 81 80 80 80 79 79 80 78 76 74 74 74 74 75 77 78 80 81 82 82 81 82 83 84 85 85 86 86 86 86 87 87 88 90 91 92
114 115 113 107 104 104 104 103 102 101 103 106 108 108 109 111 112 113 116 117 118 119 117 112 106 103 100 93 88 89 88 89 90 87 83 76 73 77 80 78 76 77 80 82 83 84 86 87 87 87 87 87 87 88 86 84 82 81 80 78 76 76 78 79 80 81 82 83 85 86 86 86 87 88 89 89 89 89 89 90 90 90 91 91 93 94
116 118 118 114 110 111 111 110 109 109 111 114 116 118 119 120 121 121 123 123 122 121 121 120 118 114 109 104 99 95 93 95 95 92 91 89 88 92 93 91 88 86 87 88 88 88 89 88 86 86 90 91 92 92 91 88 87 85 84 82 80 79 80 81 82 83 85 87 88 89 89 89 90 90 91 91 92 92 92 93 93 93 93 94 95 96
122 124 124 120 116 115 115 115 116 118 120 122 123 124 125 124 124 126 127 126 125 125 126 128 129 127 121 115 110 105 102 103 102 101 101 101 104 106 105 103 102 99 97 96 93 92 93 94 92 91 94 96 96 96 94 93 92 91 89 88 87 86 85 86 88 90 89 89 91 92 92 92 92 93 93 93 94 95 96 97 96 95 95 96 97 98
129 131 132 130 127 124 122 123 124 125 126 128 128 129 129 129 130 131 131 129 129 131 133 136 138 136 129 121 115 112 109 108 108 108 109 110 113 114 113 111 109 107 106 106 101 97 96 98 100 101 101 102 101 100 98 97 97 96 95 93 93 92 92 93 95 95 94 92 93 94 95 95 96 96 96 96 96 97 99 100 99 99 99 99 99 100
138 139 140 140 138 134 132 131 131 132 132 133 134 136 137 138 139 140 138 136 135 137 138 140 142 139 132 122 116 113 110 108 109 110 111 113 115 117 116 115 112 108 107 108 106 102 99 100 103 105 106 107 106 104 103 101 100 100 100 99 98 98 97 98 99 99 97 96 96 97 98 98 99 99 100 99 99 101 102 102 102 103 103 103 103 103
145 145 145 145 143 141 138 136 134 134 136 137 139 140 142 142 142 142 140 139 140 140 140 140 140 137 129 120 115 114 111 107 105 105 107 110 112 113 112 112 111 108 106 106 105 102 102 103 105 107 108 109 109 108 107 106 104 103 102 102 102 101 101 101 101 101 100 99 99 100 100 100 100 102 104 104 104 105 105 105 105 107 108 109 109 109
145 145 146 146 143 141 138 135 134 134 135 137 138 139 139 138 138 138 138 139 141 140 139 139 137 132 126 120 117 115 112 107 103 101 103 105 106 106 106 105 105 105 105 103 102 102 104 105 107 109 110 111 111 110 109 109 107 105 103 103 102 102 103 103 103 103 102 101 101 101 101 101 101 103 106 108 108 108 108 109 110 111 113 114 114 114
143 143 143 142 140 136 133 130 129 130 132 134 133 133 132 131 132 134 135 137 138 136 135 135 134 128 123 121 119 116 112 107 102 99 100 101 102 102 103 102 102 104 103 100 99 101 105 108 110 112 112 112 112 112 112 112 109 105 104 103 103 102 103 104 104 104 104 103 102 102 102 102 103 105 107 109 109 109 109 111 112 114 116 117 117 117
142 140 138 137 134 131 127 124 123 124 127 128 127 126 127 127 129 130 132 134 133 131 131 131 129 126 123 121 118 115 111 106 102 100 100 102 103 102 100 100 100 102 102 100 100 101 105 109 112 114 115 113 113 113 114 112 109 107 105 104 104 103 104 106 106 105 104 103 102 102 102 103 104 106 109 110 110 110 111 112 113 115 116 117 118 118
140 137 133 132 130 128 125 122 119 120 121 122 122 122 123 124 126 127 129 129 127 128 129 126 123 124 124 122 118 114 111 107 104 102 102 103 103 101 98 96 98 100 101 103 103 104 105 108 111 113 114 113 113 113 113 111 109 108 106 105 105 105 106 108 107 105 103 102 101 101 101 101 103 104 106 107 108 110 111 112 113 115 116 117 117 118
137 135 131 129 127 126 123 121 118 118 118 118 119 119 119 120 121 124 125 125 125 126 126 123 122 123 122 120 118 116 113 109 105 102 101 102 101 99 97 96 97 99 101 105 108 107 107 108 110 112 113 113 113 114 112 110 108 107 106 105 105 106 107 107 106 103 101 101 100 99 97 96 96 97 98 99 100 103 107 110 112 114 116 117 117 118
134 134 130 127 126 124 122 120 117 117 117 117 117 117 116 116 116 117 118 119 121 123 123 122 122 122 121 119 118 116 114 111 110 108 106 104 102 100 99 98 99 101 103 105 108 108 106 106 107 110 112 114 115 115 112 108 106 105 104 104 105 106 106 105 103 101 100 101 101 100 99 96 95 95 94 93 94 96 99 103 106 110 112 113 113 114
130 130 127 125 125 124 120 118 117 117 118 118 117 114 113 112 111 110 112 114 117 120 119 119 121 121 120 120 119 117 116 116 116 114 111 109 107 106 106 106 107 108 108 105 103 103 104 105 106 109 111 112 114 115 113 109 107 105 103 102 103 104 104 102 100 98 99 101 101 101 101 99 98 97 95 94 94 95 95 96 99 101 104 106 108 109
125 125 123 123 125 124 119 116 117 118 120 120 116 112 109 108 107 107 109 112 114 115 115 117 119 119 118 119 119 117 116 117 116 115 114 114 113 112 112 113 113 113 110 106 103 103 103 104 105 107 109 110 111 112 111 109 107 104 101 98 98 99 100 98 98 98 99 100 101 103 103 102 101 100 100 101 101 102 101 99 99 100 102 104 106 107
121 122 121 122 125 124 119 116 117 120 124 122 114 109 107 106 106 108 109 109 111 114 116 117 117 117 116 116 116 115 114 115 115 115 116 116 116 116 115 115 113 112 110 109 108 108 108 107 106 106 107 108 109 110 110 108 106 103 100 99 100 100 100 100 101 102 104 105 106 108 109 109 109 108 109 110 111 111 110 109 108 109 109 110 110 110
119 120 121 122 125 124 119 117 119 123 124 119 111 109 109 107 107 107 107 108 111 114 116 115 115 116 116 115 114 113 112 112 114 116 117 117 117 117 118 118 116 115 113 113 111 111 111 109 107 106 107 108 109 111 113 111 109 106 105 105 105 105 106 107 108 109 110 112 114 116 118 118 119 118 118 118 118 118 117 117 118 119 119 118 117 116
118 119 120 122 125 125 121 119 122 122 118 114 113 114 112 108 106 106 106 108 111 113 112 112 114 115 115 114 113 112 111 111 114 116 117 118 118 116 116 117 118 118 118 117 116 115 114 114 113 111 111 112 113 116 118 118 116 114 113 113 113 112 112 113 113 113 115 116 119 121 124 125 126 125 125 124 124 123 122 123 124 124 124 122 121 119
119 120 120 121 122 123 121 121 121 118 113 113 116 115 111 108 108 108 108 109 111 111 110 111 112 112 112 113 112 110 109 110 112 114 115 117 118 117 115 116 116 117 119 120 120 120 119 119 119 118 117 117 119 122 124 125 123 122 121 121 119 116 114 114 114 117 120 122 125 127 128 127 127 125 124 124 124 123 123 123 123 122 121 121 121 121
119 121 122 121 121 121 120 120 119 116 114 114 114 112 110 109 108 108 109 109 109 109 109 110 110 109 110 111 109 107 106 106 109 111 113 115 116 116 116 115 115 116 117 119 120 122 124 125 125 124 122 122 123 125 127 127 126 125 125 125 122 119 118 118 121 124 127 129 131 130 128 124 121 120 118 117 117 117 117 117 116 116 117 118 119 120
117 119 121 122 121 120 120 120 118 117 116 113 111 110 110 110 108 109 110 110 108 109 110 110 109 108 108 108 108 106 104 104 105 107 109 112 113 114 114 114 113 114 115 116 117 120 123 126 129 130 129 128 128 128 129 130 130 130 131 131 129 127 126 126 127 127 127 127 126 125 122 118 116 114 113 112 110 110 110 111 112 113 114 115 116 116
117 118 120 121 121 120 120 121 120 119 118 115 112 110 109 110 110 112 114 113 111 111 114 113 109 108 107 107 106 106 105 103 102 103 105 108 109 110 111 112 112 111 111 112 114 116 118 121 124 127 129 130 131 131 132 133 134 135 136 135 133 130 128 126 124 121 119 118 117 116 114 113 112 111 109 108 107 108 108 109 110 111 112 112 112 113
117 118 120 121 121 120 120 122 122 121 120 117 113 111 109 110 112 115 118 117 115 116 118 117 113 111 109 108 106 106 106 104 102 101 102 104 105 107 109 109 109 109 109 110 111 113 115 117 119 121 123 124 126 128 129 129 130 131 131 130 128 125 122 119 116 114 112 111 111 111 110 110 110 109 108 107 106 107 108 108 109 109 110 110 109 110
116 118 120 121 121 120 121 122 123 122 121 117 114 111 110 110 114 119 121 119 117 118 120 120 119 116 114 112 109 107 107 106 103 100 99 100 101 104 106 108 108 108 107 107 109 110 111 112 113 114 116 118 120 122 123 124 124 124 124 123 121 120 118 115 113 111 110 109 108 109 108 108 107 107 106 106 105 105 105 106 106 107 108 108 108 108
114 115 116 117 119 120 121 122 122 121 119 117 115 113 112 113 116 120 121 119 117 118 120 122 121 120 118 116 114 111 109 108 106 103 101 99 99 100 103 106 107 107 106 106 107 109 109 109 108 109 110 112 114 116 118 119 120 119 119 119 118 118 116 115 115 114 112 110 108 108 108 107 107 107 106 106 106 105 104 104 104 105 106 106 105 106
111 112 112 112 115 118 120 121 121 119 116 116 117 116 115 117 117 118 119 119 118 118 119 121 120 119 119 118 116 113 111 110 108 107 105 103 102 100 100 102 103 103 103 104 105 107 108 107 106 107 108 109 111 113 114 115 116 116 116 116 117 117 116 115 116 116 115 114 112 110 110 109 109 109 109 109 108 108 106 105 104 104 104 105 104 104
109 110 110 110 112 115 116 115 115 115 115 115 118 119 118 117 117 117 118 118 118 118 118 118 118 117 117 117 115 114 112 110 109 108 107 106 105 103 101 100 100 99 99 101 103 105 105 104 103 104 105 107 109 110 111 112 113 113 114 114 115 115 115 115 115 115 115 114 113 113 112 112 111 111 111 111 111 110 108 107 106 105 105 104 104 104
108 109 111 111 110 112 112 109 109 112 115 115 117 118 118 116 116 116 117 117 117 118 118 117 116 115 115 115 114 112 111 110 109 108 108 107 106 104 103 101 99 97 96 98 101 103 103 102 101 101 101 104 106 108 110 111 112 111 112 113 113 114 114 114 114 114 113 113 112 112 112 112 111 111 110 110 110 110 109 108 107 106 106 105 106 106
108 109 112 112 109 109 109 107 107 111 113 112 114 116 116 114 114 114 115 116 116 117 116 115 115 114 115 115 114 112 111 111 110 109 108 108 106 104 104 103 101 99 97 97 100 102 101 99 99 99 99 101 104 107 109 109 110 110 110 110 110 111 112 112 112 111 110 110 110 110 110 109 109 108 108 108 108 108 108 108 107 107 107 106 107 107
106 109 112 111 109 108 106 104 107 111 110 108 111 113 113 112 110 110 111 112 113 113 112 112 113 114 114 114 113 111 110 111 111 110 108 107 106 104 103 104 103 101 99 99 101 103 101 99 98 97 97 98 101 104 106 106 106 107 107 107 107 107 108 109 109 108 107 106 105 105 105 105 104 104 104 104 104 104 104 105 105 106 106 106 107 107
103 108 110 109 109 108 105 102 107 112 110 106 107 109 110 109 107 106 107 107 107 108 107 107 109 110 111 111 111 110 109 110 112 112 110 108 107 105 102 102 102 101 99 98 100 102 103 101 98 96 95 95 97 99 102 102 103 103 103 104 103 103 104 105 106 105 103 102 101 100 100 100 100 99 99 99 100 100 101 102 103 103 104 105 105 106
103 106 106 107 107 105 103 104 108 111 108 105 105 107 107 106 104 104 104 103 104 104 104 104 104 105 106 106 106 107 108 108 110 112 111 109 108 107 105 102 101 101 100 99 99 100 101 101 98 96 94 94 95 96 98 99 101 101 101 101 101 100 101 102 103 102 100 98 97 96 96 97 97 97 97 97 97 97 98 99 101 101 102 103 104 105
104 103 102 104 105 102 101 106 110 109 105 102 104 106 106 103 101 100 100 100 101 101 101 101 101 102 102 103 103 104 105 105 106 108 109 108 108 108 107 105 102 101 100 100 99 99 99 100 99 97 96 96 97 97 97 98 100 100 100 99 99 99 99 100 100 100 98 95 94 94 95 95 96 96 97 97 97 97 98 99 100 101 102 102 103 105
100 100 99 101 102 100 100 103 106 107 103 100 102 105 104 101 99 98 97 98 98 98 97 97 97 98 100 101 102 103 102 101 102 103 104 105 104 105 105 105 104 102 102 102 101 100 100 100 100 99 98 98 98 98 97 97 99 100 101 100 99 98 98 99 100 99 96 94 93 93 93 94 95 95 96 97 98 98 99 100 101 102 102 103 104 105
Wind_Direction
291 291 294 288 281 282 288 294 291 288 287 287 287 286 283 279 275 273 273 273 273 272 275 277 277 276 277 278 280 285 289 290 288 285 284 282 282 284 284 282 280 276 276 276 274 269 265 263 260 256 254 255 254 254 256 256 257 258 259 259 260 262 262 263 263 263 264 263 263 263 264 265 266 267 269 270 271 272 273 272 272 272 272 272 272 273
288 293 292 283 281 286 291 291 288 288 288 289 289 287 285 280 276 275 275 274 274 275 273 272 272 272 271 272 275 278 281 284 286 285 284 282 282 282 281 281 281 279 277 275 273 271 269 267 265 263 259 257 255 254 254 255 256 257 257 257 258 260 261 262 262 263 263 263 263 263 263 264 266 268 269 271 271 272 272 273 272 273 273 274 274 275
288 294 286 281 284 288 289 288 288 289 289 290 288 287 286 282 279 278 276 275 276 277 274 270 270 270 270 269 272 276 277 279 281 283 284 284 282 279 279 280 281 280 278 275 273 271 269 269 268 267 265 262 260 259 257 256 257 257 258 259 260 262 263 263 263 263 263 263 263 263 263 264 265 267 269 271 271 272 273 273 274 274 275 275 276 277
291 290 283 284 287 285 285 287 288 289 290 289 287 286 287 285 282 279 276 277 278 279 276 271 270 272 271 269 272 277 276 274 275 279 282 284 281 278 278 279 278 278 278 276 274 272 269 268 267 268 268 266 264 262 261 260 259 260 261 262 263 265 265 265 265 264 264 263 263 263 263 263 265 267 269 271 272 273 274 275 275 276 276 276 276 277
289 286 283 283 283 283 285 287 289 289 288 287 286 288 288 284 282 281 278 276 278 281 279 274 272 272 270 270 273 275 273 272 274 278 281 281 280 280 279 278 276 276 276 276 275 274 273 270 266 265 266 266 266 265 265 264 263 262 263 263 264 264 265 266 267 267 266 265 264 264 265 265 267 269 271 272 274 275 275 276 276 276 276 276 275 276
287 283 279 278 280 284 286 287 289 288 286 286 289 289 286 283 283 283 280 279 279 280 280 279 277 266 263 269 270 270 271 274 277 279 279 277 278 279 279 277 276 276 276 275 273 273 273 272 270 268 266 266 266 267 266 267 266 265 264 264 263 264 266 267 269 268 267 266 266 267 268 269 270 272 273 274 275 276 276 276 276 276 276 276 276 276
285 280 278 279 280 282 285 288 288 285 285 289 291 287 285 285 284 283 282 282 282 279 277 280 279 264 253 264 267 267 270 273 276 277 274 274 277 279 278 277 277 278 276 273 272 270 270 271 271 270 269 268 267 267 267 267 267 267 266 265 265 265 267 268 269 268 268 268 268 270 271 272 273 274 275 276 276 276 276 276 276 277 277 277 278 278
283 279 280 281 281 283 285 284 282 283 288 292 290 286 286 286 284 283 283 284 284 281 279 279 280 271 250 254 265 269 271 272 272 273 272 273 276 278 278 279 279 278 277 274 272 269 268 269 270 269 268 267 266 266 265 265 265 265 266 266 266 266 266 267 267 267 267 268 269 271 273 274 275 276 277 277 277 277 278 278 277 277 277 278 278 278
282 280 279 280 282 284 283 282 281 285 290 291 288 286 286 284 284 285 285 286 284 283 283 282 282 278 260 246 259 266 270 271 269 270 272 272 273 274 276 278 278 278 278 278 277 274 271 270 269 268 268 268 267 266 265 265 264 263 263 264 265 266 266 266 267 268 268 268 270 272 274 275 276 277 278 277 278 278 278 278 277 277 276 277 277 278
281 281 280 280 282 283 283 283 284 286 288 288 286 285 284 284 284 284 284 285 283 283 286 283 281 280 271 255 256 260 264 269 269 270 271 269 271 273 273 272 273 275 277 278 279 278 275 272 270 270 270 269 268 268 267 266 266 266 265 264 265 266 266 268 269 269 269 269 270 271 272 274 275 276 276 276 276 277 277 276 276 276 275 275 276 276
280 280 281 281 281 282 283 284 284 286 287 288 286 284 283 284 284 283 283 283 281 283 286 282 277 277 276 271 265 261 261 266 270 273 273 271 271 273 272 270 269 270 272 274 276 276 276 276 275 274 273 272 270 269 268 267 267 267 267 267 266 266 267 268 269 269 269 269 269 270 270 271 272 274 275 275 276 276 276 276 276 275 274 274 273 273
279 281 282 282 283 283 283 282 283 285 286 287 286 284 283 283 284 283 283 282 280 281 282 278 274 274 278 281 275 268 263 261 264 270 273 272 272 273 273 271 269 268 268 269 270 273 276 277 278 278 277 275 273 271 269 269 269 269 269 269 268 268 267 268 268 269 270 270 271 271 271 271 271 272 274 275 276 277 278 278 278 277 276 275 274 274
280 281 281 282 283 284 284 284 284 284 285 285 284 284 284 283 283 284 283 281 279 278 276 274 272 274 279 281 277 273 269 264 261 264 268 269 270 271 271 271 269 267 266 267 268 269 273 275 276 277 277 276 275 274 273 272 272 272 272 271 270 270 270 270 270 271 271 272 273 273 273 273 273 274 275 276 278 278 279 280 280 280 280 279 279 278
279 279 280 282 281 281 282 283 283 282 281 282 283 284 283 283 285 285 283 280 278 277 275 273 273 276 277 274 272 272 273 271 265 265 267 267 267 267 267 269 268 267 266 267 268 268 269 271 273 273 273 273 273 273 274 274 274 274 274 273 272 271 272 272 271 272 273 273 274 275 275 276 276 277 278 279 279 280 280 282 283 283 284 284 284 284
276 276 278 280 279 279 280 281 281 280 280 281 282 282 282 285 286 284 281 281 282 281 277 275 275 276 274 271 269 269 272 273 270 268 269 269 268 267 266 266 266 265 265 265 266 267 267 267 268 269 269 270 271 272 272 272 273 274 274 274 273 273 273 272 271 272 273 275 276 278 278 279 280 280 281 281 281 282 282 283 284 285 286 286 287 287
279 278 278 277 278 279 279 279 280 280 280 281 282 282 283 284 282 281 282 284 286 284 282 282 280 277 275 273 272 272 274 273 270 269 270 269 269 269 267 266 266 265 264 263 264 266 266 266 266 266 266 267 268 269 269 269 270 270 270 271 272 273 273 272 270 271 274 276 278 278 278 279 280 281 282 282 283 283 283 284 285 285 286 286 286 286
284 283 283 280 280 280 279 279 279 279 280 280 281 282 282 281 280 281 284 285 285 284 285 286 284 282 280 278 278 279 279 277 274 271 270 269 270 270 270 269 269 268 266 265 264 264 264 263 263 264 264 264 264 264 265 266 266 266 266 266 267 268 270 269 269 272 276 278 278 277 278 278 280 282 283 284 284 285 284 284 285 285 285 285 285 285
287 287 286 285 283 282 281 280 279 280 281 281 280 281 281 281 282 283 285 285 285 284 284 285 284 284 283 281 281 282 281 280 279 277 274 271 270 272 273 273 272 271 271 269 266 264 263 263 263 263 264 264 264 264 263 264 264 264 264 264 265 266 266 266 267 271 275 278 278 278 278 279 281 282 283 284 284 284 284 284 284 284 284 284 284 283
288 287 287 287 286 284 283 281 281 281 281 280 280 280 281 281 282 282 283 284 284 285 285 285 285 284 284 283 282 280 281 282 282 281 278 274 272 275 276 273 270 269 270 271 270 268 267 266 266 267 266 266 266 266 265 264 264 263 262 263 265 265 266 266 267 270 272 275 276 277 278 279 280 280 281 281 282 282 282 282 282 282 282 282 282 282
284 284 285 285 285 284 283 282 281 280 279 278 278 279 281 281 281 281 281 282 282 283 284 285 284 284 284 284 282 281 282 284 283 282 280 278 279 280 279 276 273 270 268 269 270 269 268 268 267 267 268 267 267 268 267 265 263 263 263 264 265 265 264 266 268 269 270 271 272 274 275 277 278 278 279 279 279 279 279 279 280 280 280 281 281 280
282 282 282 282 282 281 282 281 280 279 278 278 279 279 280 281 281 281 280 281 281 281 282 282 283 283 283 283 283 282 282 282 281 281 280 279 280 281 281 280 279 276 272 270 269 267 265 265 265 265 266 267 267 268 268 266 264 262 262 263 265 266 265 266 268 270 271 271 271 272 274 275 276 276 277 277 277 277 277 277 277 278 278 279 280 280
280 280 281 281 281 280 280 279 279 278 278 278 279 279 280 280 280 280 280 279 279 280 280 280 281 282 283 283 283 281 279 278 278 278 278 278 279 279 279 279 278 277 276 274 272 268 265 264 264 263 264 264 264 265 266 266 265 264 263 263 265 266 268 269 270 271 272 272 272 274 275 276 276 276 276 276 275 275 275 276 276 276 276 277 278 279
281 281 281 282 282 282 281 280 279 279 279 279 279 280 280 281 281 281 281 280 279 278 279 280 280 282 283 284 283 281 279 277 276 276 276 276 276 276 277 277 276 275 274 274 273 272 270 268 266 265 265 264 263 262 263 263 264 265 265 265 266 267 269 270 271 272 272 273 274 275 276 276 276 275 275 276 275 274 275 275 275 275 276 276 277 277
283 283 283 283 284 283 282 282 281 281 281 281 281 281 282 282 283 283 283 282 281 281 281 282 282 283 285 285 283 282 280 278 276 276 275 274 273 273 274 275 275 274 272 270 271 271 271 270 268 268 267 266 265 264 263 262 262 263 265 266 268 269 270 271 272 273 273 274 274 275 276 277 276 276 276 276 276 275 275 276 276 275 276 276 276 277
281 282 283 283 283 283 283 283 282 282 282 281 281 281 281 282 282 282 282 282 281 282 283 283 283 284 285 285 283 282 281 280 279 277 276 274 274 274 274 274 272 271 269 268 268 269 269 268 268 267 267 268 268 268 266 264 262 263 264 266 269 270 271 272 273 274 274 274 274 275 275 276 275 275 275 275 275 275 275 275 275 275 275 276 276 276
280 280 281 281 282 282 282 282 283 282 281 281 280 280 280 280 280 280 280 280 280 281 282 282 282 283 284 283 283 283 283 282 281 280 277 276 275 275 274 273 271 269 268 266 265 265 266 266 266 266 266 266 267 267 267 266 266 265 266 267 269 271 272 273 274 274 274 275 275 276 276 276 276 275 274 275 275 274 274 273 273 273 273 274 274 275
279 279 280 281 281 281 282 281 281 281 280 280 279 279 279 279 279 279 279 279 280 281 281 280 281 282 282 281 282 282 283 283 282 280 278 276 276 276 274 272 269 268 267 265 263 263 263 262 262 263 264 264 265 265 265 266 267 267 268 268 269 270 271 272 272 273 273 275 276 276 276 275 275 274 275 276 275 275 274 273 272 272 272 272 273 273
278 279 280 280 281 281 281 280 279 278 278 278 278 278 278 278 278 278 278 279 280 280 279 280 281 281 281 281 281 281 281 281 281 280 278 277 277 275 272 269 266 265 265 264 263 263 262 261 261 261 263 263 264 264 265 265 266 266 267 268 269 269 269 270 271 272 274 276 277 277 277 276 275 275 276 276 275 274 274 273 272 272 272 272 273 273
279 279 279 280 280 280 280 279 279 278 278 278 278 277 277 277 276 276 277 278 278 278 279 279 279 278 277 277 278 278 278 278 278 278 276 275 275 275 273 270 266 263 262 261 261 261 260 261 262 263 264 265 265 265 265 265 266 266 268 269 270 271 271 271 272 273 274 274 275 275 275 275 276 276 276 276 275 274 273 272 272 271 271 272 273 273
278 279 279 280 279 279 279 279 279 279 278 277 276 276 276 275 274 275 275 276 276 277 277 278 277 276 276 275 274 273 273 273 273 273 272 272 273 272 272 271 268 266 264 263 262 263 262 263 264 264 265 266 266 266 266 267 268 268 269 271 272 272 272 272 272 271 271 272 272 272 272 272 273 274 274 275 275 274 274 273 272 272 272 272 273 273
278 279 280 280 280 279 279 279 279 279 278 276 275 274 274 274 275 275 275 275 274 275 275 276 276 276 275 275 273 272 269 267 267 268 269 270 270 268 268 268 268 270 271 270 269 269 268 269 269 269 268 268 268 267 266 267 268 268 269 269 270 271 271 272 273 274 275 276 277 276 276 275 275 275 276 276 276 276 276 275 274 274 273 273 273 273
278 278 279 279 279 278 278 279 279 278 277 276 275 275 275 276 276 275 274 274 274 274 274 274 274 273 273 273 272 271 270 269 267 266 265 265 266 266 268 269 271 272 272 272 271 271 271 271 272 272 272 273 272 270 269 269 270 270 271 272 273 274 275 277 279 280 282 283 284 283 283 282 282 282 282 282 281 281 281 280 279 278 277 276 276 276
277 278 278 278 277 278 278 279 278 278 276 276 276 277 277 276 275 275 274 274 274 274 273 272 272 272 271 271 271 271 271 270 270 268 266 264 263 264 265 268 270 271 271 271 271 271 271 272 272 272 273 274 274 273 273 273 273 275 277 278 278 279 281 282 283 284 284 285 285 286 286 285 285 285 285 284 284 284 284 284 284 284 283 282 281 280
277 277 277 277 277 278 278 278 278 276 276 277 279 278 276 275 274 273 273 273 273 272 272 272 272 272 271 271 271 270 270 270 270 269 268 267 265 263 262 262 263 265 267 268 269 269 270 270 270 270 271 272 273 273 274 275 276 278 279 280 280 281 282 283 283 283 283 283 283 283 283 283 284 283 283 283 283 284 285 285 286 286 285 284 284 283
278 277 276 276 276 277 278 277 276 276 278 279 279 277 276 275 274 274 274 273 272 272 271 272 272 272 272 271 271 270 270 269 269 268 269 269 269 268 266 263 261 260 260 261 263 265 267 268 268 268 268 269 270 271 272 273 274 275 276 276 277 278 279 279 280 281 281 281 280 280 280 280 280 280 280 281 281 282 283 284 284 284 284 284 284 284
279 278 277 276 276 276 276 276 277 278 279 278 276 276 276 276 275 275 274 273 272 272 271 271 270 271 271 271 271 271 271 270 270 270 269 269 270 270 269 268 266 263 261 259 258 258 260 262 264 265 266 267 268 269 270 271 272 273 273 274 275 277 278 280 281 281 281 281 281 280 279 279 279 279 279 279 280 280 281 281 281 281 281 281 281 281
278 277 277 277 276 276 276 277 277 278 277 276 276 276 277 276 275 275 274 273 272 272 271 270 270 271 271 272 272 272 272 271 271 271 270 270 270 270 270 269 268 267 266 263 261 259 258 259 260 262 263 264 265 267 268 269 271 272 272 273 275 277 279 280 280 280 280 280 280 280 279 279 279 279 279 278 278 279 279 279 278 278 278 278 278 278
276 276 276 276 276 276 277 277 277 277 277 276 276 277 277 277 277 276 275 274 274 273 272 271 270 270 271 271 272 272 271 271 270 270 270 270 270 271 270 270 269 269 268 267 266 264 263 261 261 262 263 263 264 264 265 266 267 269 270 271 273 275 276 276 276 277 277 278 278 278 278 278 278 278 278 278 278 278 278 277 277 277 277 277 277 277
275 275 275 275 275 276 276 276 276 276 276 276 276 277 277 278 278 277 276 275 274 273 273 272 271 271 270 270 270 271 271 270 270 270 271 271 272 272 272 272 272 271 270 270 269 268 267 266 265 264 264 264 264 264 265 265 266 268 269 271 272 273 273 274 274 275 275 275 275 276 276 277 277 277 277 277 278 278 277 277 276 276 277 277 277 277
274 274 274 274 275 275 275 275 275 275 275 276 276 276 276 276 276 275 274 274 274 274 274 274 274 273 273 272 271 271 271 270 269 268 269 270 271 272 272 272 272 272 271 271 270 269 268 268 267 267 267 267 266 266 267 267 268 269 270 271 272 273 273 273 274 274 274 274 274 274 275 275 275 276 276 277 277 277 276 276 276 276 276 277 277 277
272 272 273 273 274 274 274 274 274 275 275 276 276 275 275 274 273 272 272 272 273 273 274 275 275 275 275 275 274 272 271 271 269 268 268 268 268 269 271 272 272 271 271 271 270 270 269 268 268 268 268 268 269 269 269 270 270 271 272 272 273 273 273 274 274 274 273 273 273 273 274 274 275 275 276 276 276 276 276 276 276 276 275 276 276 277
269 269 270 271 272 273 273 273 273 274 275 276 276 276 275 272 271 271 271 272 272 272 273 273 274 274 274 274 274 274 273 272 271 270 269 268 267 267 267 269 270 270 270 270 270 270 270 270 270 269 269 269 269 270 270 271 271 271 272 272 272 272 273 273 274 274 274 274 274 274 274 275 275 276 276 276 276 276 275 275 275 275 275 275 276 276
270 270 269 269 270 270 270 272 273 274 275 276 275 274 273 271 270 271 272 272 272 271 271 271 272 272 273 273 273 273 273 273 273 272 271 270 269 267 266 266 267 268 268 269 268 268 269 269 269 269 269 269 270 270 270 271 271 271 271 271 271 271 271 271 272 272 273 274 274 274 275 275 275 276 276 276 276 276 276 276 275 275 275 275 275 276
272 272 271 270 269 269 269 270 272 273 273 273 272 271 271 271 271 271 271 271 271 272 272 272 272 272 273 273 273 273 273 273 273 273 272 272 271 270 268 267 266 265 265 266 266 266 266 266 266 267 267 268 268 268 269 269 269 269 269 269 269 269 269 269 269 270 271 272 272 273 273 273 273 274 274 275 275 275 275 275 275 275 275 275 275 275
274 274 273 272 271 270 271 271 271 271 270 270 270 270 270 271 271 271 270 271 271 271 272 272 272 272 272 272 273 273 273 273 273 273 273 272 272 272 271 270 268 266 265 265 265 265 265 264 264 264 265 266 267 267 267 267 267 268 268 268 268 268 268 268 268 268 269 269 270 270 271 271 272 272 273 273 274 274 275 275 275 275 275 275 276 276
276 275 275 274 273 273 273 273 272 270 270 270 270 270 270 270 270 270 270 270 270 271 271 272 272 272 272 272 272 272 272 272 272 272 272 272 272 272 272 272 271 270 268 267 267 266 265 264 264 263 264 264 265 266 266 266 266 267 267 267 267 268 268 268 268 268 268 268 269 269 269 270 271 272 272 272 273 273 273 274 274 275 275 275 276 276
276 276 275 275 275 274 274 274 273 272 271 270 270 270 270 271 270 270 270 270 270 270 271 271 271 271 271 271 271 271 272 272 272 272 271 271 271 270 270 271 271 271 270 269 269 268 267 265 264 263 263 264 265 266 266 266 266 266 266 266 266 267 268 268 268 268 268 268 268 269 269 269 270 271 271 271 271 272 272 272 273 273 274 274 275 275
275 275 275 275 275 275 275 275 273 272 271 271 270 270 270 270 271 271 270 270 270 270 270 270 270 270 270 270 271 271 271 271 271 272 271 271 271 271 270 270 270 270 270 269 269 269 269 268 267 266 265 265 265 266 266 266 266 266 266 266 266 266 267 268 268 268 268 268 268 268 268 268 268 268 269 269 270 270 270 271 271 272 273 273 273 274
273 273 273 274 274 275 276 275 272 271 272 272 271 271 270 270 270 270 270 270 270 270 270 270 270 270 270 270 271 271 270 270 270 271 271 272 272 272 272 271 270 270 270 269 268 268 268 269 268 267 266 266 265 265 265 266 267 266 266 266 266 266 266 267 267 267 267 267 266 266 266 266 266 266 266 267 267 268 268 269 270 270 271 272 272 273
273 273 273 273 273 274 273 273 272 272 272 272 271 271 271 271 270 270 270 270 270 270 270 271 271 272 272 271 270 270 269 269 269 270 270 271 271 271 272 272 271 270 270 269 268 267 266 266 266 266 266 265 265 265 265 265 267 267 267 267 266 266 266 266 266 266 266 266 265 265 265 265 265 265 265 265 265 265 265 266 267 268 269 270 270 271
273 273 273 272 272 271 270 270 271 272 272 272 272 272 272 272 272 272 271 271 271 271 271 271 271 271 272 272 271 270 269 268 268 268 268 269 269 269 270 270 270 270 269 268 267 266 265 264 264 264 264 264 264 264 264 265 266 267 267 267 266 266 267 267 267 267 266 266 265 264 264 264 264 263 264 264 264 263 263 264 264 265 266 267 268 269
Height
10754 10756 10757 10751 10741 10736 10740 10745 10746 10746 10745 10747 10748 10748 10748 10747 10746 10742 10738 10735 10730 10738 10748 10744 10746 10748 10746 10743 10737 10733 10729 10725 10724 10727 10730 10728 10727 10727 10725 10724 10725 10727 10728 10727 10727 10726 10726 10725 10724 10725 10725 10725 10725 10725 10725 10724 10723 10723 10723 10721 10719 10719 10719 10718 10717 10716 10716 10716 10716 10715 10715 10714 10714 10713 10712 10712 10713 10713 10713 10713 10712 10711 10710 10709 10708 10707
10749 10754 10752 10742 10736 10735 10738 10738 10738 10740 10740 10742 10742 10742 10742 10740 10739 10738 10734 10730 10725 10733 10744 10740 10741 10745 10742 10741 10737 10731 10728 10722 10717 10719 10723 10724 10724 10723 10720 10718 10719 10721 10722 10722 10721 10720 10721 10720 10719 10720 10720 10719 10719 10719 10718 10716 10716 10716 10715 10714 10713 10712 10712 10711 10711 10710 10710 10709 10710 10709 10709 10708 10708 10707 10706 10706 10706 10706 10706 10706 10705 10704 10703 10702 10701 10700
10747 10751 10743 10733 10733 10733 10732 10730 10730 10733 10735 10736 10735 10734 10736 10732 10732 10735 10729 10725 10723 10728 10737 10735 10736 10741 10739 10737 10734 10727 10725 10721 10713 10711 10714 10718 10720 10718 10716 10715 10714 10715 10716 10716 10716 10715 10715 10714 10714 10714 10714 10714 10713 10712 10711 10710 10710 10709 10708 10707 10707 10706 10705 10705 10704 10704 10704 10703 10703 10703 10702 10702 10702 10701 10700 10700 10700 10699 10699 10699 10698 10697 10696 10695 10694 10693
10745 10744 10735 10728 10728 10727 10726 10724 10723 10726 10728 10729 10726 10726 10731 10726 10724 10729 10726 10721 10720 10722 10728 10729 10732 10738 10736 10732 10729 10721 10718 10716 10710 10708 10709 10711 10712 10712 10712 10711 10709 10709 10709 10710 10710 10710 10710 10710 10709 10708 10708 10708 10707 10706 10705 10704 10704 10703 10702 10702 10701 10701 10699 10698 10698 10698 10698 10697 10697 10697 10697 10697 10696 10695 10695 10694 10693 10693 10693 10692 10692 10691 10689 10688 10687 10686
10738 10734 10728 10723 10720 10720 10721 10719 10716 10716 10721 10723 10718 10718 10723 10719 10716 10721 10720 10718 10719 10719 10718 10719 10728 10736 10731 10726 10724 10714 10710 10712 10708 10706 10706 10703 10704 10706 10707 10706 10703 10704 10704 10704 10704 10704 10704 10704 10704 10704 10703 10702 10701 10700 10700 10699 10698 10698 10697 10697 10696 10696 10694 10693 10693 10693 10693 10692 10692 10691 10691 10690 10690 10689 10688 10688 10687 10687 10686 10686 10685 10684 10683 10681 10680 10679
10732 10723 10717 10716 10715 10714 10714 10715 10710 10704 10709 10718 10713 10708 10711 10711 10710 10711 10711 10712 10717 10718 10712 10709 10719 10731 10728 10722 10718 10707 10704 10708 10706 10705 10702 10696 10697 10701 10701 10699 10697 10698 10699 10699 10699 10699 10698 10698 10698 10699 10698 10697 10696 10695 10695 10694 10693 10692 10692 10692 10691 10690 10689 10688 10688 10688 10688 10687 10686 10686 10685 10684 10683 10682 10682 10681 10681 10680 10679 10679 10678 10677 10676 10674 10673 10672
10725 10713 10706 10708 10710 10709 10709 10711 10704 10689 10696 10715 10710 10698 10699 10701 10701 10702 10702 10704 10710 10714 10711 10706 10709 10720 10725 10719 10709 10702 10703 10706 10703 10700 10696 10690 10691 10694 10695 10693 10691 10690 10692 10693 10694 10694 10693 10693 10693 10693 10692 10692 10691 10689 10689 10688 10688 10687 10686 10685 10685 10684 10684 10683 10683 10682 10682 10682 10681 10681 10680 10678 10677 10676 10675 10674 10673 10672 10671 10671 10671 10670 10669 10667 10666 10665
10713 10706 10703 10700 10700 10704 10705 10703 10695 10681 10688 10706 10702 10691 10692 10692 10691 10692 10693 10696 10701 10705 10708 10706 10700 10705 10719 10716 10703 10700 10703 10703 10699 10694 10691 10687 10685 10686 10687 10687 10685 10682 10682 10685 10688 10688 10688 10687 10687 10687 10687 10686 10685 10684 10683 10683 10682 10682 10680 10680 10679 10678 10678 10677 10677 10676 10676 10676 10675 10674 10673 10671 10670 10668 10667 10667 10665 10664 10663 10663 10662 10662 10661 10659 10658 10657
10701 10699 10700 10696 10694 10697 10696 10691 10686 10680 10683 10692 10689 10684 10685 10683 10683 10683 10684 10687 10690 10695 10702 10702 10692 10690 10705 10711 10700 10700 10701 10696 10693 10690 10687 10684 10680 10680 10681 10680 10679 10677 10674 10676 10678 10679 10680 10681 10680 10680 10680 10679 10679 10677 10676 10676 10675 10675 10674 10674 10673 10671 10672 10671 10670 10670 10669 10669 10668 10666 10665 10663 10662 10661 10659 10658 10657 10656 10655 10654 10654 10653 10652 10651 10650 10649
10691 10691 10694 10693 10691 10688 10685 10681 10678 10675 10675 10678 10676 10675 10676 10675 10676 10675 10676 10678 10677 10686 10695 10694 10685 10676 10690 10704 10698 10697 10696 10687 10686 10686 10683 10681 10676 10675 10677 10675 10672 10671 10670 10669 10668 10667 10668 10671 10672 10673 10672 10672 10672 10670 10669 10668 10668 10667 10667 10666 10666 10665 10665 10664 10663 10662 10661 10661 10659 10658 10657 10655 10654 10653 10651 10650 10649 10648 10647 10645 10645 10644 10644 10643 10642 10641
10682 10683 10688 10688 10684 10682 10679 10674 10670 10667 10666 10665 10663 10665 10665 10666 10668 10664 10668 10669 10665 10678 10688 10682 10674 10667 10679 10697 10693 10689 10687 10681 10681 10679 10677 10677 10674 10671 10670 10670 10668 10666 10665 10664 10662 10658 10657 10659 10660 10662 10663 10663 10663 10662 10661 10660 10660 10659 10659 10658 10658 10657 10657 10656 10654 10654 10653 10652 10651 10649 10648 10647 10646 10645 10643 10641 10640 10639 10638 10636 10635 10634 10634 10634 10634 10633
10677 10677 10679 10678 10675 10674 10670 10666 10665 10662 10657 10653 10651 10654 10654 10655 10657 10655 10659 10658 10654 10670 10679 10669 10662 10660 10674 10688 10684 10679 10677 10675 10676 10674 10672 10671 10670 10669 10664 10662 10662 10660 10658 10658 10656 10653 10650 10649 10649 10651 10652 10652 10652 10652 10652 10652 10651 10651 10650 10650 10650 10649 10648 10647 10646 10645 10644 10643 10641 10640 10639 10639 10638 10637 10635 10633 10632 10630 10628 10627 10625 10623 10623 10623 10623 10623
10671 10672 10668 10668 10668 10663 10656 10656 10658 10655 10650 10644 10643 10644 10641 10641 10645 10645 10646 10643 10642 10658 10665 10656 10651 10658 10674 10679 10672 10669 10668 10667 10668 10666 10665 10665 10665 10665 10659 10654 10655 10655 10652 10649 10650 10648 10645 10642 10642 10642 10643 10643 10642 10642 10642 10642 10642 10642 10642 10642 10641 10640 10640 10639 10638 10636 10635 10634 10632 10631 10631 10630 10630 10628 10626 10625 10624 10621 10619 10617 10614 10612 10611 10611 10611 10611
10662 10665 10664 10659 10657 10655 10649 10648 10647 10645 10641 10638 10639 10637 10627 10628 10633 10631 10629 10625 10630 10646 10649 10642 10643 10657 10670 10668 10662 10661 10658 10659 10660 10657 10657 10658 10657 10655 10651 10648 10647 10648 10647 10643 10641 10642 10639 10636 10635 10635 10634 10634 10633 10633 10633 10632 10632 10632 10632 10633 10632 10632 10632 10630 10628 10627 10625 10624 10622 10622 10622 10621 10621 10619 10617 10616 10615 10613 10610 10608 10605 10602 10600 10598 10597 10597
10647 10657 10665 10652 10642 10645 10646 10641 10635 10631 10631 10634 10634 10625 10618 10623 10619 10607 10604 10610 10620 10630 10633 10632 10636 10650 10660 10655 10652 10653 10649 10650 10650 10648 10649 10648 10646 10644 10642 10642 10640 10640 10639 10636 10634 10634 10632 10630 10627 10626 10625 10624 10625 10624 10623 10622 10622 10623 10622 10622 10622 10621 10621 10620 10619 10617 10615 10613 10612 10613 10612 10611 10610 10609 10608 10606 10604 10603 10601 10598 10596 10592 10589 10586 10583 10581
10629 10644 10660 10647 10633 10637 10637 10631 10624 10616 10617 10625 10625 10616 10614 10616 10603 10585 10585 10597 10604 10605 10614 10625 10628 10638 10648 10644 10642 10643 10640 10641 10640 10639 10640 10638 10636 10634 10633 10633 10633 10632 10630 10627 10627 10625 10624 10622 10618 10616 10615 10615 10615 10614 10613 10612 10612 10613 10613 10613 10612 10611 10610 10610 10608 10606 10604 10603 10603 10602 10601 10600 10599 10598 10597 10595 10593 10592 10590 10588 10586 10583 10579 10575 10571 10568
10609 10621 10640 10637 10628 10629 10626 10620 10616 10607 10603 10608 10610 10608 10606 10600 10588 10579 10576 10583 10583 10577 10592 10613 10618 10623 10630 10631 10632 10631 10628 10629 10627 10628 10629 10628 10627 10626 10625 10626 10624 10623 10620 10617 10617 10615 10613 10611 10607 10605 10604 10604 10604 10602 10602 10601 10600 10602 10602 10603 10603 10602 10601 10599 10597 10595 10593 10593 10591 10590 10590 10589 10588 10587 10586 10584 10582 10580 10579 10577 10575 10573 10570 10566 10561 10558
10589 10592 10612 10622 10617 10616 10615 10609 10607 10603 10596 10591 10591 10594 10593 10585 10580 10577 10568 10567 10567 10559 10567 10590 10604 10610 10612 10617 10623 10618 10615 10617 10615 10616 10618 10617 10618 10615 10614 10616 10615 10612 10609 10606 10605 10602 10600 10598 10596 10594 10592 10592 10592 10590 10590 10590 10590 10590 10590 10590 10591 10591 10591 10589 10587 10586 10583 10581 10579 10578 10578 10577 10577 10576 10573 10572 10570 10568 10566 10564 10562 10561 10559 10555 10551 10548
10570 10565 10581 10603 10605 10599 10597 10597 10597 10597 10589 10577 10573 10576 10578 10575 10574 10571 10559 10553 10552 10546 10546 10560 10577 10591 10598 10607 10611 10605 10604 10605 10602 10605 10605 10604 10606 10603 10600 10601 10601 10599 10596 10592 10590 10590 10587 10585 10584 10582 10579 10579 10577 10575 10578 10579 10578 10578 10577 10577 10578 10578 10578 10577 10576 10576 10573 10570 10568 10566 10566 10566 10565 10563 10561 10560 10558 10557 10554 10551 10549 10548 10546 10543 10540 10536
10559 10548 10552 10578 10591 10583 10580 10584 10585 10582 10575 10566 10561 10561 10562 10562 10561 10559 10550 10545 10542 10536 10533 10534 10541 10559 10581 10595 10597 10595 10596 10594 10591 10592 10590 10587 10589 10587 10582 10582 10584 10585 10581 10576 10577 10577 10574 10572 10571 10569 10565 10564 10563 10561 10564 10566 10565 10564 10564 10565 10565 10565 10566 10565 10564 10563 10561 10559 10556 10555 10555 10554 10552 10550 10549 10547 10546 10544 10541 10538 10536 10535 10533 10531 10528 10524
10549 10540 10535 10551 10568 10569 10570 10572 10568 10563 10559 10553 10550 10548 10547 10547 10546 10541 10535 10536 10535 10526 10521 10517 10511 10524 10556 10577 10584 10588 10586 10581 10579 10579 10574 10573 10572 10568 10566 10564 10566 10568 10563 10560 10562 10562 10560 10559 10559 10556 10551 10548 10548 10549 10549 10549 10549 10550 10551 10552 10551 10551 10554 10554 10551 10549 10549 10547 10545 10544 10543 10541 10539 10538 10537 10535 10533 10531 10527 10525 10524 10523 10521 10519 10516 10512
10534 10528 10522 10527 10541 10551 10556 10556 10551 10547 10544 10540 10536 10533 10532 10531 10529 10522 10518 10523 10524 10512 10505 10501 10491 10498 10530 10555 10564 10570 10573 10567 10563 10562 10560 10560 10556 10551 10549 10548 10548 10550 10546 10541 10542 10544 10546 10546 10543 10540 10536 10532 10532 10535 10535 10534 10534 10535 10537 10538 10538 10538 10540 10539 10536 10536 10536 10535 10534 10533 10530 10528 10527 10526 10524 10523 10521 10517 10513 10512 10512 10510 10508 10507 10504 10501
10514 10508 10505 10507 10515 10523 10530 10535 10534 10529 10527 10525 10520 10516 10513 10510 10507 10501 10498 10503 10503 10493 10488 10486 10476 10480 10510 10535 10538 10541 10550 10551 10546 10544 10545 10542 10538 10534 10531 10528 10528 10533 10530 10522 10523 10528 10529 10527 10524 10521 10518 10513 10513 10516 10518 10519 10521 10521 10522 10523 10523 10525 10525 10522 10520 10520 10521 10522 10521 10519 10517 10515 10514 10512 10510 10509 10507 10503 10499 10498 10498 10496 10494 10492 10490 10488
10491 10486 10484 10484 10489 10494 10501 10510 10513 10512 10508 10502 10498 10496 10490 10487 10487 10481 10476 10476 10471 10467 10471 10468 10457 10465 10494 10515 10514 10512 10520 10526 10527 10529 10526 10519 10516 10516 10515 10511 10509 10511 10510 10507 10508 10512 10510 10507 10505 10502 10499 10495 10494 10496 10499 10502 10505 10506 10508 10509 10509 10510 10510 10506 10504 10504 10506 10507 10507 10505 10504 10502 10499 10496 10495 10494 10491 10488 10486 10485 10483 10481 10478 10477 10475 10473
10476 10472 10468 10464 10466 10471 10477 10485 10492 10495 10489 10478 10474 10476 10473 10471 10470 10463 10459 10455 10444 10445 10455 10448 10436 10452 10477 10488 10486 10487 10493 10500 10506 10509 10503 10496 10497 10498 10496 10494 10492 10489 10490 10493 10495 10494 10491 10487 10484 10482 10480 10479 10477 10478 10479 10480 10486 10491 10494 10495 10496 10495 10493 10490 10489 10488 10489 10490 10490 10490 10491 10489 10485 10483 10480 10477 10474 10473 10472 10470 10468 10465 10462 10461 10459 10456
10461 10458 10453 10449 10449 10452 10460 10467 10473 10474 10468 10458 10455 10457 10457 10457 10454 10447 10444 10436 10427 10433 10441 10430 10423 10439 10458 10461 10461 10466 10470 10475 10482 10486 10480 10474 10477 10480 10478 10476 10474 10471 10473 10478 10479 10476 10471 10466 10464 10462 10461 10462 10462 10461 10459 10460 10468 10476 10480 10482 10482 10481 10478 10474 10472 10472 10472 10472 10474 10475 10475 10473 10470 10467 10464 10461 10460 10458 10457 10455 10452 10449 10447 10445 10442 10441
10439 10438 10437 10435 10433 10436 10444 10452 10456 10454 10445 10440 10440 10440 10440 10439 10436 10432 10425 10419 10419 10419 10415 10413 10416 10421 10430 10437 10442 10450 10454 10454 10459 10464 10459 10453 10455 10459 10459 10458 10457 10455 10457 10460 10459 10455 10451 10446 10444 10442 10441 10444 10446 10445 10444 10448 10454 10460 10464 10466 10466 10466 10464 10460 10457 10457 10458 10458 10458 10459 10459 10457 10454 10451 10448 10447 10445 10442 10440 10437 10435 10433 10430 10428 10426 10425
10417 10418 10423 10422 10417 10420 10425 10429 10436 10435 10426 10424 10425 10424 10425 10423 10420 10415 10407 10406 10411 10400 10389 10401 10411 10402 10401 10412 10422 10432 10438 10436 10438 10441 10437 10434 10435 10437 10439 10440 10437 10437 10439 10439 10437 10434 10429 10425 10424 10423 10424 10428 10430 10429 10431 10436 10440 10444 10447 10449 10449 10448 10447 10445 10444 10446 10446 10445 10444 10443 10442 10439 10437 10435 10434 10432 10429 10427 10423 10420 10419 10417 10414 10411 10410 10408
10398 10397 10407 10408 10401 10402 10405 10406 10413 10414 10409 10408 10407 10405 10409 10410 10406 10400 10394 10396 10396 10383 10376 10389 10392 10384 10386 10395 10401 10410 10417 10418 10420 10421 10417 10415 10415 10417 10419 10418 10415 10417 10419 10416 10413 10411 10409 10408 10409 10409 10410 10412 10413 10413 10417 10422 10427 10430 10432 10433 10432 10430 10429 10429 10431 10433 10432 10429 10428 10426 10424 10423 10422 10420 10418 10415 10413 10410 10407 10405 10403 10401 10398 10396 10395 10393
10382 10375 10386 10390 10383 10383 10386 10388 10392 10392 10389 10388 10387 10387 10390 10389 10389 10388 10385 10386 10381 10370 10368 10372 10366 10364 10373 10378 10381 10390 10398 10400 10399 10399 10399 10400 10401 10402 10399 10393 10389 10392 10394 10392 10392 10395 10398 10400 10401 10399 10398 10398 10396 10396 10401 10408 10414 10417 10419 10420 10419 10416 10413 10413 10416 10417 10414 10411 10410 10408 10407 10409 10408 10405 10402 10399 10396 10394 10391 10389 10387 10385 10384 10382 10380 10378
10369 10360 10368 10371 10361 10360 10369 10372 10372 10370 10366 10362 10364 10370 10373 10372 10375 10376 10373 10371 10365 10356 10358 10358 10347 10345 10354 10358 10359 10365 10372 10374 10374 10378 10384 10386 10386 10383 10378 10372 10369 10372 10376 10378 10381 10386 10388 10389 10389 10387 10384 10382 10380 10379 10384 10392 10397 10399 10403 10406 10404 10400 10396 10396 10398 10397 10394 10391 10389 10387 10389 10391 10390 10388 10387 10384 10382 10379 10376 10374 10373 10371 10370 10368 10366 10363
10358 10350 10352 10353 10339 10336 10351 10356 10353 10350 10341 10335 10342 10354 10360 10362 10361 10359 10356 10353 10348 10343 10342 10339 10330 10329 10336 10336 10334 10339 10345 10348 10352 10359 10365 10366 10366 10365 10362 10360 10359 10361 10364 10368 10371 10374 10374 10374 10373 10371 10368 10365 10361 10360 10364 10371 10375 10377 10382 10385 10384 10380 10378 10379 10380 10378 10374 10372 10370 10369 10371 10372 10372 10372 10370 10368 10365 10363 10361 10360 10358 10357 10355 10353 10351 10348
10344 10337 10335 10334 10319 10317 10333 10338 10334 10329 10315 10311 10329 10344 10347 10347 10344 10339 10338 10338 10335 10328 10320 10314 10311 10312 10313 10314 10317 10324 10330 10332 10333 10335 10337 10342 10348 10352 10352 10352 10352 10352 10353 10354 10357 10359 10359 10359 10358 10356 10353 10350 10346 10343 10344 10349 10354 10358 10363 10365 10364 10363 10364 10366 10366 10364 10361 10358 10356 10356 10356 10356 10357 10358 10356 10354 10351 10348 10347 10346 10344 10342 10340 10337 10334 10332
10327 10322 10318 10315 10303 10299 10314 10321 10313 10303 10294 10300 10321 10328 10324 10326 10326 10321 10321 10322 10317 10308 10300 10296 10294 10291 10291 10297 10304 10310 10315 10320 10318 10311 10310 10317 10325 10331 10335 10339 10342 10343 10342 10342 10342 10343 10343 10344 10345 10344 10341 10338 10334 10328 10327 10331 10337 10342 10346 10347 10347 10349 10352 10353 10354 10353 10350 10348 10346 10344 10343 10342 10343 10344 10343 10341 10339 10336 10334 10333 10330 10328 10325 10321 10318 10315
10305 10304 10300 10298 10288 10283 10295 10300 10286 10280 10289 10299 10303 10300 10299 10304 10306 10304 10306 10305 10294 10287 10287 10286 10279 10273 10274 10279 10286 10292 10299 10305 10300 10292 10292 10296 10299 10305 10312 10318 10324 10329 10331 10331 10330 10329 10328 10328 10330 10331 10330 10328 10323 10318 10314 10316 10322 10328 10331 10332 10334 10336 10339 10341 10343 10342 10339 10336 10334 10330 10327 10326 10326 10327 10327 10325 10324 10322 10321 10319 10316 10313 10309 10305 10302 10299
10280 10280 10277 10277 10274 10269 10275 10277 10266 10268 10284 10286 10277 10276 10282 10286 10286 10285 10287 10284 10274 10269 10273 10271 10263 10261 10261 10262 10267 10274 10282 10286 10283 10277 10278 10279 10279 10283 10290 10296 10301 10305 10309 10313 10314 10314 10314 10313 10313 10315 10316 10315 10312 10306 10302 10302 10307 10313 10315 10316 10318 10321 10323 10326 10329 10328 10324 10321 10317 10313 10310 10308 10308 10309 10310 10309 10308 10308 10307 10304 10302 10298 10293 10290 10288 10285
10262 10258 10254 10254 10255 10254 10254 10256 10253 10257 10264 10262 10257 10261 10265 10267 10268 10267 10265 10262 10258 10255 10255 10251 10249 10251 10250 10248 10251 10258 10264 10269 10267 10263 10262 10261 10261 10264 10269 10274 10279 10282 10285 10288 10292 10295 10297 10297 10297 10298 10300 10301 10299 10294 10290 10288 10291 10295 10296 10297 10302 10307 10309 10312 10313 10311 10307 10304 10299 10295 10292 10291 10291 10292 10292 10292 10293 10292 10291 10288 10286 10283 10278 10275 10274 10272
10252 10244 10238 10234 10234 10237 10236 10234 10237 10239 10238 10241 10245 10247 10247 10247 10249 10248 10244 10240 10239 10236 10232 10231 10235 10238 10238 10238 10238 10240 10246 10250 10250 10248 10246 10245 10245 10246 10249 10253 10258 10262 10265 10268 10271 10274 10276 10277 10279 10280 10282 10284 10284 10281 10278 10276 10275 10277 10278 10281 10288 10294 10295 10295 10296 10294 10292 10288 10284 10280 10277 10275 10275 10275 10274 10275 10276 10276 10275 10272 10270 10267 10263 10260 10259 10258
10237 10231 10226 10218 10216 10222 10221 10214 10216 10219 10217 10221 10229 10234 10236 10234 10230 10227 10221 10216 10216 10213 10206 10208 10216 10220 10221 10224 10225 10224 10227 10231 10235 10236 10232 10228 10229 10230 10231 10234 10237 10241 10246 10250 10251 10253 10255 10257 10259 10260 10262 10265 10265 10263 10263 10262 10260 10260 10262 10266 10272 10276 10275 10274 10275 10276 10275 10272 10269 10266 10263 10261 10259 10259 10258 10259 10260 10259 10257 10255 10253 10251 10248 10245 10244 10243
10221 10216 10211 10203 10200 10207 10205 10195 10194 10198 10199 10203 10212 10220 10224 10221 10214 10206 10196 10192 10195 10193 10185 10187 10194 10197 10200 10205 10209 10209 10208 10209 10217 10223 10221 10217 10217 10215 10213 10215 10219 10222 10226 10229 10230 10232 10235 10236 10238 10239 10241 10243 10244 10244 10244 10244 10245 10245 10246 10249 10251 10253 10253 10252 10255 10257 10256 10254 10252 10250 10249 10246 10244 10244 10244 10243 10244 10243 10241 10239 10236 10234 10232 10230 10229 10228
10209 10202 10195 10188 10187 10190 10186 10177 10175 10177 10180 10187 10195 10203 10208 10206 10197 10182 10171 10174 10182 10178 10170 10170 10173 10174 10177 10183 10187 10190 10189 10189 10194 10203 10207 10207 10207 10205 10201 10199 10201 10204 10208 10209 10209 10209 10213 10216 10219 10221 10222 10222 10222 10223 10223 10224 10226 10228 10229 10231 10231 10231 10231 10231 10233 10235 10235 10235 10234 10233 10232 10231 10229 10228 10228 10227 10227 10226 10225 10223 10220 10217 10215 10214 10214 10213
10195 10189 10185 10182 10177 10171 10165 10160 10159 10163 10169 10173 10176 10182 10186 10181 10172 10161 10154 10160 10167 10164 10157 10154 10154 10155 10158 10161 10164 10168 10170 10171 10173 10179 10185 10189 10191 10193 10191 10188 10187 10190 10192 10194 10193 10191 10192 10197 10201 10202 10204 10204 10203 10202 10202 10203 10206 10208 10210 10212 10211 10211 10213 10213 10211 10211 10213 10215 10216 10215 10214 10214 10213 10211 10210 10208 10208 10207 10207 10206 10204 10202 10199 10198 10199 10198
10176 10171 10173 10175 10166 10155 10150 10149 10146 10151 10162 10162 10155 10155 10157 10152 10148 10148 10145 10143 10145 10145 10141 10138 10138 10139 10140 10143 10146 10150 10153 10155 10156 10158 10163 10167 10169 10173 10176 10176 10176 10177 10179 10180 10180 10177 10177 10181 10185 10185 10185 10186 10185 10185 10185 10185 10187 10189 10191 10192 10191 10191 10194 10195 10194 10193 10194 10195 10196 10197 10196 10196 10195 10193 10192 10190 10189 10188 10188 10189 10188 10186 10184 10183 10184 10184
10156 10151 10150 10153 10149 10140 10138 10144 10144 10141 10144 10143 10133 10128 10131 10131 10131 10132 10129 10126 10125 10123 10122 10122 10124 10125 10125 10126 10129 10133 10136 10139 10141 10142 10144 10146 10148 10151 10154 10157 10160 10162 10165 10165 10164 10163 10162 10165 10170 10172 10170 10170 10169 10168 10169 10169 10169 10171 10172 10172 10172 10171 10174 10176 10176 10177 10179 10178 10179 10179 10178 10177 10177 10177 10176 10174 10172 10171 10171 10171 10171 10170 10170 10169 10169 10169
10134 10132 10124 10123 10128 10125 10122 10133 10139 10126 10118 10120 10116 10109 10110 10115 10116 10112 10109 10110 10109 10105 10104 10106 10109 10112 10111 10109 10111 10116 10120 10121 10122 10124 10125 10127 10130 10132 10132 10135 10138 10141 10145 10147 10146 10145 10145 10148 10153 10157 10157 10156 10153 10151 10151 10151 10151 10154 10155 10153 10152 10152 10153 10155 10157 10159 10161 10162 10162 10161 10161 10160 10161 10161 10160 10158 10156 10154 10154 10153 10154 10154 10155 10154 10154 10153
10114 10111 10098 10095 10105 10107 10106 10114 10115 10103 10099 10104 10099 10091 10091 10097 10099 10097 10093 10092 10090 10089 10090 10092 10093 10095 10094 10092 10094 10100 10104 10105 10104 10106 10108 10109 10113 10116 10115 10115 10116 10117 10121 10125 10125 10125 10127 10130 10134 10137 10140 10141 10137 10133 10133 10133 10134 10136 10136 10135 10134 10134 10134 10135 10137 10139 10141 10143 10144 10144 10144 10144 10145 10144 10143 10141 10139 10138 10137 10137 10138 10138 10139 10139 10138 10137
10100 10089 10075 10077 10085 10083 10087 10097 10089 10074 10081 10090 10082 10072 10073 10077 10080 10081 10078 10075 10073 10073 10076 10078 10076 10075 10075 10075 10077 10083 10089 10089 10086 10087 10091 10092 10095 10100 10101 10099 10099 10099 10100 10102 10103 10103 10105 10109 10113 10116 10121 10124 10122 10117 10115 10117 10119 10119 10118 10117 10118 10117 10116 10116 10118 10120 10122 10124 10126 10127 10127 10128 10128 10127 10125 10124 10122 10122 10122 10122 10122 10122 10123 10123 10122 10120
10083 10068 10060 10065 10066 10061 10069 10080 10068 10049 10055 10070 10067 10058 10057 10059 10062 10063 10060 10058 10058 10058 10060 10061 10059 10057 10058 10060 10062 10066 10072 10074 10068 10066 10070 10074 10076 10079 10082 10083 10084 10084 10085 10085 10083 10083 10084 10087 10092 10096 10101 10106 10107 10103 10100 10100 10101 10100 10099 10099 10100 10101 10101 10100 10100 10102 10104 10107 10109 10111 10111 10111 10111 10110 10109 10108 10107 10107 10107 10107 10107 10107 10107 10106 10104 10103
10058 10053 10053 10050 10048 10051 10055 10052 10040 10031 10039 10050 10048 10040 10039 10043 10045 10045 10045 10044 10043 10042 10043 10044 10044 10043 10044 10047 10048 10048 10051 10055 10054 10049 10050 10055 10058 10058 10059 10062 10065 10066 10068 10068 10066 10066 10067 10070 10073 10076 10080 10084 10085 10083 10083 10083 10081 10080 10080 10080 10080 10082 10084 10085 10084 10085 10088 10091 10093 10095 10095 10094 10095 10095 10095 10094 10094 10094 10093 10093 10092 10092 10091 10090 10088 10086
10034 10039 10046 10035 10030 10041 10042 10026 10014 10015 10027 10036 10029 10018 10019 10025 10027 10029 10031 10030 10027 10028 10030 10031 10032 10031 10030 10031 10032 10031 10032 10036 10039 10036 10034 10037 10041 10041 10040 10041 10043 10046 10048 10047 10047 10049 10050 10051 10053 10055 10059 10062 10062 10062 10064 10066 10064 10062 10061 10061 10061 10062 10063 10065 10067 10069 10072 10076 10078 10079 10079 10079 10080 10080 10080 10081 10080 10080 10079 10079 10078 10077 10077 10076 10074 10071
10019 10023 10028 10020 10014 10022 10024 10013 10003 10001 10010 10019 10012 10000 10001 10007 10009 10013 10016 10013 10012 10016 10018 10018 10020 10019 10016 10013 10011 10011 10014 10019 10022 10021 10020 10021 10024 10025 10024 10024 10024 10026 10028 10026 10026 10030 10032 10033 10035 10037 10040 10043 10043 10044 10047 10049 10049 10046 10043 10041 10043 10044 10044 10045 10047 10051 10055 10059 10061 10063 10064 10064 10065 10065 10065 10065 10065 10065 10065 10064 10064 10063 10064 10063 10062 10059